Starlink 35292

operational
NORAD ID: 66322 Int'l Des: 2025-253 Owner: SPXS Country: US Constellation: starlink
NOTLE

Starlink 35292について

説明を読み込み中...

リアルタイム位置

3D地球を読み込み中...

次回通過

高度履歴

Altitude vs Time

uPlot chart will show altitude changes over time

軌道要素

1 66322U 25253D 25355.31555746 .00061864 00000-0 14756-2 0 9992
2 66322 43.0019 296.3880 0001470 268.6647 91.4041 15.40712542 8249
Epoch: Dec 21, 2025 • Age: 16 hours

現在のステータス

高度 443.3 km
速度 7.65 km/s
衛星直下点 3.18°N, 19.94°E
打ち上げ日 Nov 6, 2025
運用期間 0.1 years
タイプ internet

技術仕様

分類 Payload
質量 575.00 kg
乾燥質量 530.00 kg
総質量 575.00 kg
長さ 0.30 m
直径 4.10 m
スパン 29.00 m
形状 Box + pan
製造者 SPXS
バスタイプ Starlink V2MO
フェーズステータス In Orbit
所有者/国 SPXS/US

大規模コンステレーション

Loading constellations...